User: anonymous   Login
Location: Canyam�s
(41.5996°N, 2.4450°E)
Time: 02:08:09
(UTC+00:00)
Language:

STARLINK-1329 - Orbit

View from above orbital plane
View from above orbital plane
View from above satellite
View from above satellite

Ground track
Ground track

The orbit data is extracted from the following two-line orbital elements,

1 45531C 20025A   20221.74665244  .00001330  00000-0  91090-4 0  2210
2 45531  52.9982 259.7891 0001116  99.3333 170.2167 15.05582817    12
Epoch (UTC): 08 August 2020 17:55:10
Eccentricity: 0.0001116
inclination: 52.9982°
perigee height: 549 km
apogee height: 550 km
right ascension of ascending node: 259.7891°
argument of perigee: 99.3333°
revolutions per day: 15.05582817
mean anomaly at epoch: 170.2167°
orbit number at epoch: 1

The dashed part of the orbit path shows where the satellite is in the earth's shadow,  

DLR